• In Netherlands
  • List of Countries
  • For 7 days
  • Water Temperature
  • Satellite Maps
  • Weather Map
  • Weather Widgets
  • user-avatar
    Login

    Hourly Weather Korçe

    Today, 20 January, Saturday

    Time Temperature Precipitation Wind Pressure Humidity
    00:00 +1°C° 0 mm 3 mps 664 mmHg 93%
    01:00 +1°C° 0 mm 3 mps 663 mmHg 93%
    02:00 +1°C° 0.1 mm 3 mps 663 mmHg 93%
    03:00 +1°C° 0.1 mm 3 mps 663 mmHg 93%
    04:00 +1°C° 0.1 mm 3 mps 663 mmHg 94%
    05:00 +1°C° 0.1 mm 3 mps 662 mmHg 94%
    06:00 +1°C° 0.1 mm 3 mps 662 mmHg 94%
    07:00 +2°C° 0.1 mm 3 mps 662 mmHg 94%
    08:00 +2°C° 0.2 mm 3 mps 662 mmHg 92%
    09:00 +3°C° 0.2 mm 3 mps 663 mmHg 91%
    10:00 +4°C° 0.2 mm 3 mps 663 mmHg 89%
    11:00 +4°C° 0.3 mm 3 mps 662 mmHg 88%
    12:00 +5°C° 0.3 mm 3 mps 662 mmHg 87%
    13:00 +5°C° 0.3 mm 3 mps 662 mmHg 86%
    14:00 +5°C° 0.8 mm 3 mps 661 mmHg 88%
    15:00 +4°C° 0.8 mm 3 mps 661 mmHg 90%
    16:00 +4°C° 0.8 mm 3 mps 661 mmHg 91%
    17:00 +4°C° 0.5 mm 2 mps 661 mmHg 92%
    18:00 +4°C° 0.5 mm 2 mps 661 mmHg 93%
    19:00 +4°C° 0.5 mm 2 mps 661 mmHg 94%
    20:00 +3°C° 0.1 mm 2 mps 661 mmHg 95%
    21:00 +3°C° 0.1 mm 2 mps 662 mmHg 95%
    22:00 +3°C° 0.1 mm 2 mps 662 mmHg 95%
    23:00 +3°C° 0 mm 2 mps 662 mmHg 95%

    Tomorrow, 21 January, Sunday

    Time Temperature Precipitation Wind Pressure Humidity
    00:00 +2°C° 0 mm 2 mps 661 mmHg 95%
    01:00 +2°C° 0 mm 2 mps 661 mmHg 95%
    02:00 +2°C° 0 mm 2 mps 661 mmHg 95%
    03:00 +2°C° 0 mm 2 mps 660 mmHg 94%
    04:00 +2°C° 0 mm 2 mps 660 mmHg 94%
    05:00 +2°C° 0 mm 2 mps 660 mmHg 94%
    06:00 +2°C° 0 mm 2 mps 659 mmHg 93%
    07:00 +2°C° 0 mm 2 mps 659 mmHg 93%
    08:00 +3°C° 0.1 mm 2 mps 659 mmHg 89%
    09:00 +4°C° 0.1 mm 2 mps 660 mmHg 85%
    10:00 +5°C° 0.1 mm 2 mps 660 mmHg 81%
    11:00 +5°C° 0.3 mm 2 mps 659 mmHg 80%
    12:00 +5°C° 0.3 mm 2 mps 659 mmHg 79%
    13:00 +5°C° 0.3 mm 2 mps 658 mmHg 78%
    14:00 +5°C° 0.8 mm 2 mps 658 mmHg 82%
    15:00 +5°C° 0.8 mm 1 mps 658 mmHg 86%
    16:00 +5°C° 0.8 mm 1 mps 657 mmHg 90%
    17:00 +5°C° 0.8 mm 1 mps 657 mmHg 92%
    18:00 +4°C° 0.8 mm 1 mps 657 mmHg 93%
    19:00 +4°C° 0.8 mm 1 mps 657 mmHg 95%
    20:00 +4°C° 0.1 mm 1 mps 658 mmHg 95%
    21:00 +3°C° 0.1 mm 1 mps 658 mmHg 95%
    22:00 +2°C° 0.1 mm 2 mps 658 mmHg 95%
    23:00 +2°C° 0 mm 2 mps 658 mmHg 95%

    Day after tomorrow, 22 January, Monday

    Time Temperature Precipitation Wind Pressure Humidity
    00:00 +2°C° 0 mm 2 mps 658 mmHg 95%
    01:00 +2°C° 0 mm 2 mps 658 mmHg 94%
    02:00 +1°C° 0 mm 2 mps 658 mmHg 94%
    03:00 +1°C° 0 mm 2 mps 658 mmHg 94%
    04:00 +1°C° 0 mm 2 mps 658 mmHg 94%
    05:00 -1°C° 0 mm 2 mps 659 mmHg 93%
    06:00 -1°C° 0 mm 2 mps 659 mmHg 93%
    07:00 -1°C° 0 mm 2 mps 660 mmHg 92%
    08:00 +1°C° 0 mm 2 mps 660 mmHg 86%
    09:00 +1°C° 0 mm 3 mps 661 mmHg 81%
    10:00 +1°C° 0 mm 3 mps 662 mmHg 75%
    11:00 +2°C° 0 mm 3 mps 662 mmHg 70%
    12:00 +2°C° 0 mm 3 mps 662 mmHg 65%
    13:00 +2°C° 0 mm 3 mps 662 mmHg 60%
    14:00 +2°C° 0 mm 3 mps 662 mmHg 62%
    15:00 +2°C° 0 mm 3 mps 663 mmHg 63%
    16:00 +2°C° 0 mm 2 mps 663 mmHg 65%
    17:00 +1°C° 0 mm 2 mps 663 mmHg 68%
    18:00 -1°C° 0 mm 2 mps 663 mmHg 71%
    19:00 0°C° 0 mm 1 mps 663 mmHg 74%
    20:00 0°C° 0 mm 1 mps 664 mmHg 74%
    21:00 0°C° 0 mm 1 mps 664 mmHg 73%
    22:00 -1°C° 0 mm 1 mps 664 mmHg 73%
    23:00 -1°C° 0 mm 1 mps 664 mmHg 73%

    23 January, Tuesday

    Time Temperature Precipitation Wind Pressure Humidity
    00:00 -1°C° 0 mm 1 mps 664 mmHg 72%
    01:00 -1°C° 0 mm 1 mps 664 mmHg 72%
    02:00 -1°C° 0 mm 1 mps 664 mmHg 71%
    03:00 -1°C° 0 mm 1 mps 664 mmHg 70%
    04:00 -1°C° 0 mm 1 mps 665 mmHg 69%
    05:00 -1°C° 0 mm 1 mps 665 mmHg 67%
    06:00 -1°C° 0 mm 1 mps 665 mmHg 66%
    07:00 -1°C° 0 mm 1 mps 665 mmHg 64%
    08:00 +1°C° 0 mm 1 mps 666 mmHg 59%
    09:00 +3°C° 0 mm 1 mps 667 mmHg 53%
    10:00 +4°C° 0 mm 1 mps 668 mmHg 47%
    11:00 +5°C° 0 mm 1 mps 668 mmHg 47%
    12:00 +5°C° 0 mm 1 mps 668 mmHg 47%
    13:00 +6°C° 0 mm 1 mps 668 mmHg 47%
    14:00 +5°C° 0.1 mm 1 mps 668 mmHg 53%
    15:00 +4°C° 0.1 mm 1 mps 668 mmHg 58%
    16:00 +4°C° 0.1 mm 1 mps 668 mmHg 64%
    17:00 +3°C° 0 mm 1 mps 669 mmHg 66%
    18:00 +2°C° 0 mm 1 mps 669 mmHg 68%
    19:00 +1°C° 0 mm 1 mps 669 mmHg 70%
    20:00 -1°C° 0 mm 2 mps 670 mmHg 70%
    21:00 -2°C° 0 mm 2 mps 670 mmHg 70%
    22:00 -2°C° 0 mm 2 mps 671 mmHg 69%
    23:00 -2°C° 0 mm 2 mps 671 mmHg 70%

    24 January, Wednesday

    Time Temperature Precipitation Wind Pressure Humidity
    00:00 -2°C° 0 mm 2 mps 671 mmHg 71%
    01:00 -3°C° 0 mm 2 mps 671 mmHg 71%
    02:00 -3°C° 0 mm 2 mps 671 mmHg 72%
    03:00 -3°C° 0 mm 2 mps 671 mmHg 72%
    04:00 -4°C° 0 mm 2 mps 671 mmHg 72%
    05:00 -4°C° 0 mm 2 mps 672 mmHg 71%
    06:00 -4°C° 0 mm 2 mps 672 mmHg 70%
    07:00 -4°C° 0 mm 2 mps 672 mmHg 70%
    08:00 -3°C° 0 mm 2 mps 673 mmHg 63%
    09:00 -1°C° 0 mm 2 mps 674 mmHg 56%
    10:00 +1°C° 0 mm 2 mps 675 mmHg 49%
    11:00 +2°C° 0 mm 2 mps 675 mmHg 46%
    12:00 +3°C° 0 mm 2 mps 675 mmHg 43%
    13:00 +4°C° 0 mm 2 mps 675 mmHg 40%
    14:00 +3°C° 0 mm 2 mps 675 mmHg 44%
    15:00 +4°C° 0 mm 1 mps 675 mmHg 48%
    16:00 +3°C° 0 mm 1 mps 674 mmHg 52%
    17:00 +2°C° 0 mm 1 mps 674 mmHg 55%
    18:00 -1°C° 0 mm 2 mps 674 mmHg 58%
    19:00 -2°C° 0 mm 2 mps 674 mmHg 61%
    20:00 -3°C° 0 mm 2 mps 675 mmHg 62%
    21:00 -3°C° 0 mm 2 mps 675 mmHg 62%
    22:00 -3°C° 0 mm 2 mps 675 mmHg 63%
    23:00 -3°C° 0 mm 2 mps 675 mmHg 63%

    25 January, Thursday

    Time Temperature Precipitation Wind Pressure Humidity
    00:00 -3°C° 0 mm 2 mps 674 mmHg 64%
    01:00 -3°C° 0 mm 2 mps 674 mmHg 64%
    02:00 -3°C° 0 mm 2 mps 674 mmHg 63%
    03:00 -4°C° 0 mm 2 mps 674 mmHg 63%
    04:00 -4°C° 0 mm 2 mps 674 mmHg 62%
    05:00 -4°C° 0 mm 2 mps 674 mmHg 61%
    06:00 -4°C° 0 mm 2 mps 674 mmHg 61%
    07:00 -4°C° 0 mm 2 mps 674 mmHg 60%
    08:00 0°C° 0 mm 1 mps 674 mmHg 53%
    09:00 +2°C° 0 mm 1 mps 675 mmHg 47%
    10:00 +4°C° 0 mm 1 mps 675 mmHg 41%
    11:00 +5°C° 0 mm 1 mps 675 mmHg 39%
    12:00 +6°C° 0 mm 1 mps 675 mmHg 38%
    13:00 +6°C° 0 mm 1 mps 675 mmHg 36%
    14:00 +6°C° 0 mm 1 mps 674 mmHg 42%
    15:00 +5°C° 0 mm 1 mps 674 mmHg 48%
    16:00 +4°C° 0 mm 1 mps 673 mmHg 54%
    17:00 +3°C° 0 mm 1 mps 673 mmHg 56%
    18:00 +2°C° 0 mm 1 mps 673 mmHg 59%
    19:00 +1°C° 0 mm 1 mps 673 mmHg 62%
    20:00 +1°C° 0 mm 1 mps 673 mmHg 60%
    21:00 0°C° 0 mm 1 mps 673 mmHg 59%
    22:00 0°C° 0 mm 1 mps 673 mmHg 58%
    23:00 0°C° 0 mm 1 mps 672 mmHg 57%
    Show more